Location: *
(43.6428°N, 11.5461°E)
Time: 03:21:59
(UTC+00:00)

Cosmos 2278 Rocket - Pass Details

Date: 21 October 2019
Orbit: 840 x 847 km, 71.0° (Epoch: 12 November)

Event Time Altitude Azimuth Distance (km) Brightness Sun altitude
Rises 18:38:12 0° 241° (WSW) 3,397 6.1 -25.4°
Reaches altitude 10° 18:41:04 10° 254° (WSW) 2,466 5.4 -25.9°
Maximum altitude 18:45:42 25° 309° (NW) 1,641 4.2 -26.7°
Drops below altitude 10° 18:50:21 10° 4° (N) 2,479 4.7 -27.6°
Sets 18:53:16 0° 17° (NNE) 3,418 5.3 -28.1°
